User: anonymous   Login
Location: Cranbrook Institute of Science
(42.5830°N, 83.2450°W)
Time: 06:13:42
(UTC-05:00)
Language:

CZ-4B R/B - Orbit

View from above orbital plane
View from above orbital plane
View from above satellite
View from above satellite

Ground track
Ground track

The orbit data is extracted from the following two-line orbital elements,

1 29093U 06015B   17349.89464735 +.00002221 +00000-0 +52119-4 0  9994
2 29093 097.5103 105.5069 0062313 025.3487 335.0793 15.41217218645401
Epoch (UTC): 15 December 2017 21:28:17
Eccentricity: 0.0062313
inclination: 97.5103°
perigee height: 400 km
apogee height: 485 km
right ascension of ascending node: 105.5069°
argument of perigee: 25.3487°
revolutions per day: 15.41217218
mean anomaly at epoch: 335.0793°
orbit number at epoch: 64540

The dashed part of the orbit path shows where the satellite is in the earth's shadow,  

DLR